Faith, SD

2:30 PM MDT on April 29, 2017 (GMT -0600)
Faith

Weather History for KD07 - January, 2013

Change the Weather History Date:

Tuesday, January 15, 2013

  Actual Average Record
Temperature  
Mean Temperature 19 °F 20 °F  
Max Temperature 37 °F 30 °F 51 °F (2006)
Min Temperature 1 °F 11 °F -20 °F (2005)
Degree Days  
Heating Degree Days 46 45  
Month to date heating degree days 668 675  
Since 1 July heating degree days 3592 3818  
Cooling Degree Days 0 0  
Month to date cooling degree days 0 0  
Year to date cooling degree days 0 0  
Moisture  
Dew Point 16 °F    
Average Humidity 78    
Maximum Humidity 89    
Minimum Humidity 67    
Precipitation  
Precipitation 0.00 in 0.00 in 0.07 in (2016)
Month to date precipitation 0.04 0.09  
Year to date precipitation 0.04 0.09  
Sea Level Pressure  
Sea Level Pressure 30.03 in    
Wind  
Wind Speed 16 mph (WSW)    
Max Wind Speed 30 mph    
Max Gust Speed 37 mph    
T = Trace of Precipitation, MM = Missing Value Source: NWS Daily Summary

Daily Weather History Graph

Daily Weather History Graph

Search for Another Location

Airport or City:

Trip Planner

Search our weather history database for the weather conditions in past years. The results will help you decide how hot, cold, wet, or windy it might be!

Date:

Astronomy

Jan. 15, 2013 Rise Set
Actual Time 7:22 AM MST 4:33 PM MST
Civil Twilight 6:49 AM MST 5:05 PM MST
Nautical Twilight 6:13 AM MST 5:42 PM MST
Astronomical Twilight 5:38 AM MST 6:17 PM MST
Moon 9:15 AM MST (1/15) 9:40 PM MST (1/15)
Length of Visible Light 10h 15m
Length of Day
9h 10m
Waxing Crescent, 20% of the Moon is Illuminated
Jan 15
Waxing Crescent
Jan 18
First Quarter
Jan 26
Full
Feb 3
Last Quarter
Feb 10
New

Hourly Weather History & Observations

Time (MST) Temp. Windchill Dew Point Humidity Pressure Visibility Wind Dir Wind Speed Gust Speed Precip Events Conditions
12:56 AM 1.0 °F -14.9 °F -4.0 °F 79% 30.18 in - South 10.4 mph - N/A   Unknown
1:56 AM 3.0 °F -11.5 °F -2.9 °F 76% 30.17 in - SSW 9.2 mph - N/A   Unknown
2:56 AM 3.0 °F -10.5 °F -4.0 °F 73% 30.16 in - SSW 8.1 mph - N/A   Unknown
3:56 AM 5.0 °F -12.3 °F -2.9 °F 70% 30.13 in - SW 13.8 mph - N/A   Unknown
4:56 AM 6.1 °F -9.5 °F -2.0 °F 69% 30.12 in - SSW 11.5 mph - N/A   Unknown
5:56 AM 5.0 °F -9.1 °F -2.0 °F 73% 30.12 in - SW 9.2 mph - N/A   Unknown
6:56 AM 8.1 °F -7.0 °F -0.0 °F 70% 30.11 in - SW 11.5 mph - N/A   Unknown
7:56 AM 14.0 °F -0.2 °F 5.0 °F 67% 30.11 in - SW 12.7 mph - N/A   Unknown
8:56 AM 16.0 °F 2.9 °F 8.1 °F 71% 30.10 in - SW 11.5 mph - N/A   Unknown
9:56 AM 19.9 °F 9.3 °F 12.9 °F 74% 30.09 in - SW 9.2 mph - N/A   Unknown
10:56 AM 24.1 °F 12.0 °F 18.0 °F 77% 30.08 in - WSW 13.8 mph - N/A   Unknown
11:56 AM 27.0 °F 16.7 °F 21.0 °F 78% 30.04 in - WSW 11.5 mph - N/A   Unknown
12:56 PM 28.9 °F 18.6 °F 23.0 °F 78% 30.02 in - WSW 12.7 mph - N/A   Unknown
1:56 PM 32.0 °F 22.5 °F 26.1 °F 79% 29.99 in - West 12.7 mph 24.2 mph N/A   Unknown
2:56 PM 32.0 °F 20.8 °F 28.9 °F 88% 29.99 in - West 17.3 mph 25.3 mph N/A   Unknown
3:56 PM 33.1 °F 20.6 °F 28.9 °F 85% 29.98 in - West 23.0 mph 28.8 mph N/A   Unknown
4:56 PM 33.1 °F 21.9 °F 30.0 °F 89% 29.96 in - West 18.4 mph - N/A   Unknown
5:56 PM 34.0 °F 22.1 °F 30.0 °F 85% 29.95 in - West 21.9 mph - N/A   Unknown
6:56 PM 35.1 °F 23.5 °F 28.9 °F 78% 29.93 in - West 21.9 mph 28.8 mph N/A   Unknown
7:56 PM 35.1 °F 22.2 °F 28.9 °F 78% 29.90 in - West 27.6 mph - N/A   Unknown
8:56 PM 35.1 °F 23.5 °F 28.0 °F 76% 29.89 in - West 21.9 mph 31.1 mph N/A   Unknown
9:56 PM 36.0 °F 23.2 °F 28.9 °F 76% 29.88 in - WNW 28.8 mph 35.7 mph N/A   Unknown
11:56 PM 37.0 °F 25.1 °F 28.9 °F 73% 29.88 in - WNW 26.5 mph - N/A   Unknown